TimeCST,TemperatureF,Dew PointF,Humidity,Sea Level PressureIn,VisibilityMPH,Wind Direction,Wind SpeedMPH,Gust SpeedMPH,PrecipitationIn,Events,Conditions,WindDirDegrees,DateUTC
12:54 AM,35.1,21.9,59,30.50,10.0,West,6.9,-,N/A,,Clear,280,2012-03-09 06:54:00
1:54 AM,36.0,21.0,55,30.51,10.0,West,6.9,-,N/A,,Clear,270,2012-03-09 07:54:00
2:54 AM,36.0,21.0,55,30.50,10.0,West,6.9,-,N/A,,Clear,270,2012-03-09 08:54:00
3:54 AM,36.0,19.9,52,30.50,10.0,West,5.8,-,N/A,,Clear,280,2012-03-09 09:54:00
4:54 AM,36.0,19.0,50,30.51,10.0,West,5.8,-,N/A,,Clear,270,2012-03-09 10:54:00
5:54 AM,36.0,18.0,48,30.52,10.0,West,4.6,-,N/A,,Clear,270,2012-03-09 11:54:00
6:54 AM,34.0,21.9,61,30.56,10.0,NNW,9.2,-,N/A,,Clear,340,2012-03-09 12:54:00
7:54 AM,37.9,23.0,55,30.56,10.0,NW,4.6,-,N/A,,Clear,320,2012-03-09 13:54:00
8:54 AM,41.0,26.1,55,30.57,10.0,North,6.9,-,N/A,,Clear,360,2012-03-09 14:54:00
9:54 AM,45.0,28.0,52,30.57,10.0,NNE,9.2,-,N/A,,Clear,20,2012-03-09 15:54:00
10:54 AM,48.0,30.0,50,30.56,10.0,North,10.4,-,N/A,,Clear,360,2012-03-09 16:54:00
11:54 AM,50.0,30.0,46,30.56,10.0,North,6.9,-,N/A,,Clear,10,2012-03-09 17:54:00
12:54 PM,52.0,27.0,38,30.53,10.0,NNW,5.8,-,N/A,,Clear,330,2012-03-09 18:54:00
1:54 PM,54.0,27.0,35,30.51,10.0,North,4.6,-,N/A,,Clear,360,2012-03-09 19:54:00
2:54 PM,55.0,25.0,31,30.51,10.0,NNE,5.8,-,N/A,,Clear,20,2012-03-09 20:54:00
3:54 PM,55.9,21.9,27,30.49,10.0,Calm,Calm,-,N/A,,Clear,0,2012-03-09 21:54:00
4:54 PM,55.9,21.9,27,30.48,10.0,ENE,4.6,-,N/A,,Clear,70,2012-03-09 22:54:00
5:54 PM,52.0,27.0,38,30.48,10.0,NE,4.6,-,N/A,,Clear,40,2012-03-09 23:54:00
6:54 PM,48.9,19.9,32,30.48,10.0,ENE,5.8,-,N/A,,Clear,60,2012-03-10 00:54:00
7:54 PM,44.6,23.0,43,30.45,10.0,East,8.1,-,N/A,,Clear,80,2012-03-10 01:54:00
8:54 PM,43.0,21.0,42,30.47,10.0,East,5.8,-,N/A,,Clear,100,2012-03-10 02:54:00
9:54 PM,43.0,18.0,37,30.45,10.0,East,5.8,-,N/A,,Clear,100,2012-03-10 03:54:00
10:54 PM,43.0,17.1,35,30.45,10.0,ESE,5.8,-,N/A,,Clear,110,2012-03-10 04:54:00
11:54 PM,39.0,18.0,43,30.46,10.0,SE,6.9,-,N/A,,Clear,140,2012-03-10 05:54:00